This is the latest recevied weather packets stored in our database for station/object K5BOU. If no packets are shown the sender has not sent any weather packets the latest 10 day(s).
| Time | Temp. | Humidity | Pressure | Rain* | Wind** | Luminosity | Snow |
|---|---|---|---|---|---|---|---|
| 1777858920 | 21.11° C | 63% | 1015.9 hPa | 0 mm | - | 0 W/m² | - |
| 1777858617 | 21.11° C | 62% | 1015.8 hPa | 0 mm | - | 0 W/m² | - |
| 1777858314 | 21.11° C | 61% | 1015.7 hPa | 0 mm | - | 0 W/m² | - |
| 1777858011 | 21.67° C | 61% | 1015.7 hPa | 0 mm | - | 0 W/m² | - |
| 1777857709 | 21.67° C | 61% | 1015.6 hPa | 0 mm | - | 0 W/m² | - |
| 1777857406 | 21.67° C | 60% | 1015.9 hPa | 0 mm | - | 0 W/m² | - |
| 1777857102 | 21.67° C | 59% | 1015.8 hPa | 0 mm | - | 0 W/m² | - |
| 1777856798 | 22.22° C | 58% | 1015.7 hPa | 0 mm | - | 0 W/m² | - |
| 1777856494 | 22.22° C | 58% | 1015.9 hPa | 0 mm | - | 0 W/m² | - |
| 1777856191 | 22.22° C | 57% | 1015.7 hPa | 0 mm | - | 3 W/m² | - |
| 1777855888 | 22.78° C | 58% | 1015.8 hPa | 0 mm | - | 11 W/m² | - |
| 1777855586 | 22.78° C | 57% | 1015.7 hPa | 0 mm | - | 12 W/m² | - |
| 1777855283 | 22.78° C | 56% | 1015.7 hPa | 0 mm | - | 15 W/m² | - |
| 1777854979 | 23.33° C | 56% | 1015.7 hPa | 0 mm | - | 23 W/m² | - |
| 1777854676 | 23.33° C | 55% | 1015.7 hPa | 0 mm | - | 30 W/m² | - |
| 1777854373 | 23.33° C | 55% | 1015.7 hPa | 0 mm | - | 33 W/m² | - |
| 1777854070 | 23.33° C | 54% | 1015.8 hPa | 0 mm | - | 36 W/m² | - |
| 1777853768 | 23.89° C | 54% | 1015.8 hPa | 0 mm | - | 35 W/m² | - |
| 1777853464 | 23.89° C | 53% | 1015.5 hPa | 0 mm | - | 37 W/m² | - |
| 1777853161 | 23.89° C | 53% | 1015.4 hPa | 0 mm | - | 50 W/m² | - |
| 1777852858 | 23.89° C | 53% | 1015.6 hPa | 0 mm | - | 34 W/m² | - |
| 1777852556 | 23.89° C | 51% | 1015.7 hPa | 0 mm | - | 52 W/m² | - |
| 1777852253 | 24.44° C | 51% | 1015.6 hPa | 0 mm | - | 42 W/m² | - |
| 1777851951 | 25° C | 51% | 1015.8 hPa | 0 mm | - | 109 W/m² | - |
| 1777851649 | 25° C | 52% | 1015.9 hPa | 0 mm | - | 100 W/m² | - |
* Rain latest hour (hover to see other rain measurements)
** Current wind speed in m/s (hover to see current wind gust speed)